Tracking 27107 objects as of 21-Mar-2023
HD Live streaming from Space Station
objects crossing your sky now

COSMOS 729

Track COSMOS 729 now!
10-day predictions
COSMOS 729 is classified as:


NORAD ID: 7768
Int'l Code: 1975-034A
Perigee: 977.9 km
Apogee: 1,010.6 km
Inclination: 83.0 °
Period: 104.8 minutes
Semi major axis: 7365 km
RCS: 1.6998 m2 (large)
Launch date: April 22, 1975
Source: Commonwealth of Independent States (former USSR) (CIS)
Launch site: PLESETSK MISSILE AND SPACE COMPLEX (PKMTR)
Your satellite tracking list
Your tracking list is empty




NASA's NSSDC Master Catalog

Two Line Element Set (TLE):
1 07768U 75034A   23079.79669271  .00000099  00000-0  90666-4 0  9994
2 07768  82.9597 282.9099 0022187 218.4446 155.3624 13.73469278400446
Source of the keplerian elements: AFSPC